[[{"header":{"parameterUnit":"m.s-1","parameterCategory":1,"la1":30.2991,"la2":30.254,"lo1":-89.0895,"lo2":-89.0444,"dy":0.0017,"dx":0.0017,"nx":28,"ny":28,"refTime":"2025-05-15T09:00:00:Z","depth":0,"parameterNumber":2,"parameterNumberName":"U-component_of_WINDS"},"data":[0,0,0,0,0,0,0,0,0,0,0,0,0,0,0,0,0,0,0,0,0,0,0,0,0,0,0,0,0,0,0,0,0,0,0,0,0,0,0,0,0,0,0,0,0,0,0,0,0,0,0,0,0,0,0,0,0,0,0.5879,0.5879,0,0.5906,0.5906,0.5907,0.5931,0.5931,0.5932,0.5932,0.596,0.5961,0.5961,0,0,0,0,0,0,0,0,0,0,0,0,0,0.585,0.5851,0.5879,0.5879,0.588,0.5906,0.5906,0.5907,0.5931,0.5931,0.5932,0.5932,0.596,0.5961,0.5961,0,0,0,0,0,0,0,0,0,0,0,0,0,0.5869,0.5851,0.5879,0.5895,0.5897,0.5906,0.5906,0.5907,0.5931,0.5931,0.5932,0.5932,0.596,0.5961,0.5961,0.5957,0,0,0.5964,0.5964,0,0,0,0,0,0,0,0,0.5867,0.587,0.5892,0.5894,0.5896,0.5916,0.5907,0.5924,0.5931,0.5918,0.5932,0.5932,0.5945,0.5947,0.5951,0.5959,0.596,0.5964,0.5964,0.5965,0.5965,0,0,0,0,0,0,0,0.5866,0.5869,0.589,0.5893,0.5895,0.5901,0.5905,0.591,0.5929,0.5919,0.5921,0.5924,0.5946,0.5951,0.5952,0.596,0.5964,0.5964,0.5965,0.5965,0.5968,0.5968,0,0,0,0,0,0,0.5862,0.5867,0.5889,0.5891,0.5882,0.5902,0.5905,0.5909,0.5929,0.5932,0.5923,0.5925,0.5949,0.5951,0.5953,0.5951,0.5964,0.5965,0.5966,0.5969,0.5968,0.5968,0,0,0,0,0,0,0.5862,0.5864,0.5888,0.5879,0.5883,0.5902,0.5906,0.5909,0.5913,0.5932,0.5936,0.5924,0.595,0.5952,0.5957,0.5953,0.5966,0.5966,0.5969,0.5969,0.5968,0.5947,0,0,0,0,0,0,0.5861,0.5863,0.5861,0.5879,0.5883,0.589,0.5905,0.5909,0.5915,0.5917,0.5934,0.5937,0.595,0.5955,0.5957,0.5954,0.5967,0.597,0.5969,0.5968,0.5948,0.5945,0.5943,0,0,0,0,0,0.5859,0.5854,0.5861,0.5864,0.5881,0.589,0.5892,0.5907,0.5914,0.5913,0.5925,0.5937,0.5953,0.5956,0.5958,0.5955,0.597,0.5969,0.5968,0.5949,0.5946,0.5943,0,0,0,0,0,0,0.5835,0.5856,0.5865,0.5865,0.5875,0.5894,0.5892,0.5903,0.5912,0.5913,0.5932,0.5936,0.5938,0.5947,0.595,0.5953,0.5963,0.5963,0.5947,0.5945,0.5943,0.5941,0.5967,0,0,0,0,0,0.5829,0.5834,0.5853,0.5851,0.5856,0.5873,0.5877,0.5888,0.59,0.5904,0.5917,0.5928,0.5936,0.5941,0.5949,0.5949,0.5954,0.5948,0.5946,0.5944,0.5944,0.5947,0.5945,0.5965,0.5965,0.5965,0,0,0.5818,0.5831,0.5832,0.5847,0.5856,0.5861,0.5877,0.5881,0.5886,0.5905,0.5911,0.592,0.5934,0.5937,0.5939,0.5944,0.5939,0.5943,0.5942,0.5942,0.5946,0.5944,0.5942,0.5965,0.5965,0.5965,0,0,0.5801,0.581,0.581,0.582,0.5834,0.5846,0.5846,0.5864,0.5871,0.5877,0.5892,0.5898,0.5911,0.5921,0.5927,0.5916,0.5927,0.5918,0.5907,0.5909,0.5908,0.5906,0.5904,0.5902,0.5918,0.5918,0.5918,0,0.5785,0.5793,0.5809,0.5813,0.582,0.5838,0.584,0.5848,0.5864,0.5869,0.5875,0.5893,0.5903,0.591,0.5907,0.5911,0.5913,0.5916,0.5907,0.5905,0.5904,0.5902,0.5901,0.5916,0.5917,0.5917,0.5917,0,0.5774,0.578,0.5778,0.5794,0.5801,0.5803,0.5821,0.5825,0.5836,0.5848,0.5855,0.5868,0.588,0.5883,0.5893,0.5891,0.5894,0.5903,0.5913,0.5901,0.5899,0.5898,0.5915,0.5915,0.5916,0.5916,0,0,0.5741,0.5767,0.5766,0.5775,0.5793,0.5798,0.5802,0.5814,0.5818,0.5829,0.5834,0.5846,0.5855,0.5862,0.5874,0.5876,0.5868,0.5885,0.5886,0.5883,0.5869,0.5863,0.5862,0.5876,0.5876,0.5876,0.5869,0,0.5727,0.5736,0.5751,0.5755,0.5761,0.578,0.5784,0.5796,0.5808,0.5815,0.5828,0.5837,0.5847,0.5852,0.5855,0.5869,0.5866,0.5869,0.5882,0.5882,0.5878,0.5861,0.5854,0.5846,0.5868,0.5868,0.5868,0,0.5712,0.5723,0.5727,0.5747,0.575,0.5753,0.5767,0.5773,0.5788,0.5797,0.5806,0.5819,0.5826,0.5836,0.5846,0.5848,0.5855,0.5862,0.5862,0.5865,0.5874,0.5863,0.5844,0.5843,0.5867,0.5867,0.5867,0,0.5689,0.5705,0.571,0.5716,0.5739,0.5741,0.575,0.5766,0.5772,0.5784,0.579,0.5802,0.5809,0.5819,0.5836,0.5841,0.5845,0.5856,0.5853,0.5853,0.5854,0.5853,0.5836,0.5856,0.5856,0.5856,0.5856,0,0.5673,0.5675,0.57,0.5703,0.5707,0.5726,0.5729,0.5741,0.5754,0.5761,0.5778,0.5784,0.5805,0.5814,0.5828,0.5835,0.5838,0.5846,0.585,0.5845,0.5844,0.5849,0.5851,0.5856,0.5856,0.5856,0.5856,0,0.5648,0.5664,0.5672,0.5693,0.5698,0.57,0.5719,0.5723,0.5736,0.5745,0.5748,0.5768,0.578,0.5798,0.5814,0.5823,0.5829,0.5835,0.5824,0.5827,0.5824,0.5824,0.581,0.5809,0.5829,0.5829,0.5829,0,0.5637,0.5639,0.5661,0.5666,0.5675,0.5684,0.5692,0.5711,0.5718,0.5736,0.5739,0.5752,0.5763,0.5781,0.5798,0.5811,0.5818,0.5812,0.582,0.5816,0.5819,0.5819,0.582,0.581,0.581,0.5809,0.5809,0,0.5615,0.5624,0.5634,0.5647,0.5656,0.5667,0.5679,0.5683,0.5705,0.5713,0.5725,0.5734,0.5752,0.5765,0.5781,0.5792,0.5805,0.5807,0.5807,0.5802,0.5797,0.5801,0.582,0.5807,0.5807,0.5807,0.5807,0.5808,0.5598,0.5601,0.5618,0.5629,0.564,0.5652,0.5657,0.5672,0.5682,0.5698,0.5709,0.5721,0.5738,0.5761,0.5771,0.5781,0.5787,0.5787,0.5787,0.5787,0.5786,0.5795,0.5784,0.5784,0.5784,0.5785,0.5785,0,0.5578,0.559,0.56,0.5617,0.5626,0.5637,0.5652,0.5659,0.567,0.5684,0.5695,0.571,0.5724,0.5742,0.5757,0.5762,0.5769,0.5765,0.5766,0.5768,0.578,0.5778,0.576,0.576,0.576,0.576,0.576,0.576,0.5569,0.5577,0.5588,0.5601,0.5613,0.5625,0.5633,0.5644,0.5656,0.5672,0.5683,0.5695,0.5712,0.5728,0.5742,0.5747,0.5752,0.5748,0.5755,0.5765,0.5767,0.5769,0.5768,0.5748,0.5748,0.5743,0.5743,0.5742]},{"header":{"parameterUnit":"m.s-1","parameterCategory":1,"la1":30.2991,"la2":30.254,"lo1":-89.0895,"lo2":-89.0444,"dy":0.0017,"dx":0.0017,"nx":28,"ny":28,"refTime":"2025-05-15T09:00:00:Z","depth":0,"parameterNumber":3,"parameterNumberName":"V-component_of_WINDS"},"data":[0,0,0,0,0,0,0,0,0,0,0,0,0,0,0,0,0,0,0,0,0,0,0,0,0,0,0,0,0,0,0,0,0,0,0,0,0,0,0,0,0,0,0,0,0,0,0,0,0,0,0,0,0,0,0,0,0,0,4.8893,4.8893,0,4.8924,4.8924,4.8925,4.8962,4.8963,4.8963,4.8964,4.8989,4.899,4.899,0,0,0,0,0,0,0,0,0,0,0,0,0,4.8861,4.8862,4.8893,4.8893,4.8894,4.8924,4.8924,4.8925,4.8962,4.8963,4.8963,4.8964,4.8989,4.899,4.899,0,0,0,0,0,0,0,0,0,0,0,0,0,4.8882,4.8862,4.8893,4.8916,4.8919,4.8924,4.8924,4.8925,4.8962,4.8963,4.8964,4.8965,4.8989,4.8989,4.899,4.8973,0,0,4.899,4.899,0,0,0,0,0,0,0,0,4.8881,4.8883,4.8912,4.8915,4.8917,4.894,4.8923,4.8941,4.8962,4.8945,4.8964,4.8965,4.8972,4.8974,4.8977,4.8974,4.8975,4.899,4.899,4.899,4.899,0,0,0,0,0,0,0,4.8879,4.8882,4.8905,4.8913,4.8916,4.8924,4.8927,4.8926,4.8953,4.8947,4.895,4.8953,4.8973,4.8977,4.8978,4.8975,4.899,4.899,4.899,4.8991,4.8962,4.8961,0,0,0,0,0,0,4.8875,4.888,4.8904,4.8906,4.8901,4.8923,4.8928,4.8932,4.8953,4.8957,4.8952,4.8955,4.8976,4.8978,4.8979,4.8962,4.899,4.8991,4.8991,4.8962,4.8961,4.896,0,0,0,0,0,0,4.8874,4.8877,4.8903,4.8894,4.8898,4.8923,4.8927,4.8932,4.8936,4.8957,4.8962,4.8951,4.8977,4.8979,4.8975,4.8963,4.8991,4.8991,4.8963,4.8962,4.8961,4.8927,0,0,0,0,0,0,4.8873,4.8876,4.8871,4.8894,4.8898,4.8899,4.8927,4.8932,4.8937,4.894,4.8958,4.8961,4.8978,4.8974,4.8975,4.8964,4.8991,4.8965,4.8963,4.8961,4.8929,4.8924,4.8921,0,0,0,0,0,4.8872,4.8858,4.887,4.8873,4.8892,4.8898,4.8901,4.8922,4.8936,4.893,4.8944,4.8961,4.8965,4.8974,4.8975,4.8964,4.8965,4.8963,4.8961,4.8931,4.8925,4.8921,0,0,0,0,0,0,4.883,4.8862,4.8875,4.8869,4.8881,4.8905,4.8898,4.8915,4.8922,4.8925,4.8949,4.8952,4.8946,4.8954,4.8964,4.8949,4.8968,4.8966,4.8944,4.8939,4.8935,4.8933,4.8991,0,0,0,0,0,4.8821,4.8825,4.8851,4.8843,4.8849,4.8873,4.8876,4.8892,4.8904,4.8909,4.8922,4.8932,4.8936,4.8938,4.8942,4.8931,4.8935,4.8924,4.8919,4.8916,4.8914,4.8909,4.8905,4.8954,4.8954,4.8954,0,0,4.88,4.8818,4.8819,4.8835,4.8847,4.8849,4.8876,4.8877,4.8879,4.8908,4.8906,4.8917,4.893,4.8922,4.8919,4.8929,4.8901,4.8913,4.891,4.891,4.8907,4.8902,4.8898,4.8953,4.8953,4.8953,0,0,4.8765,4.8779,4.8775,4.8786,4.8804,4.882,4.8819,4.8841,4.885,4.8849,4.8872,4.8873,4.8879,4.8888,4.8893,4.8864,4.8879,4.8864,4.8842,4.8837,4.8834,4.883,4.8821,4.8817,4.8862,4.8862,4.8862,0,4.8737,4.8744,4.8769,4.877,4.8777,4.8807,4.8802,4.8811,4.8828,4.8832,4.8843,4.8852,4.8863,4.8859,4.8852,4.8855,4.8854,4.8862,4.8832,4.8829,4.8827,4.8818,4.8814,4.886,4.886,4.8861,4.8861,0,4.8709,4.8713,4.8707,4.8727,4.8733,4.873,4.8755,4.8758,4.8773,4.8788,4.8787,4.8801,4.881,4.881,4.8824,4.8808,4.8814,4.8828,4.8847,4.882,4.8812,4.8808,4.8858,4.8858,4.8859,4.8859,0,0,4.8646,4.8683,4.868,4.869,4.8713,4.8716,4.8715,4.8727,4.8729,4.874,4.874,4.8746,4.876,4.8766,4.8781,4.8777,4.8754,4.8792,4.8793,4.8785,4.8739,4.8729,4.8724,4.8765,4.8765,4.8764,4.8738,0,4.8615,4.8619,4.8643,4.8638,4.8643,4.8672,4.8672,4.8685,4.87,4.8704,4.8719,4.8723,4.8741,4.8745,4.8743,4.8758,4.8745,4.876,4.8765,4.8764,4.8761,4.872,4.8708,4.8683,4.8735,4.8735,4.8734,0,4.8579,4.8592,4.8589,4.8615,4.8618,4.8617,4.863,4.8635,4.8651,4.8661,4.867,4.8688,4.8688,4.8706,4.8707,4.8716,4.872,4.8727,4.8727,4.8728,4.8748,4.872,4.8676,4.8672,4.873,4.873,4.873,0,4.8535,4.8551,4.8553,4.856,4.8589,4.8589,4.86,4.8618,4.8624,4.8634,4.8639,4.8648,4.8653,4.866,4.868,4.8691,4.8679,4.8698,4.8687,4.8687,4.8683,4.8683,4.8638,4.8684,4.8684,4.8684,4.8684,0,4.8498,4.8495,4.8534,4.8534,4.8532,4.856,4.8556,4.857,4.8586,4.8589,4.8614,4.8615,4.8642,4.8647,4.8662,4.8661,4.8663,4.8671,4.8675,4.8669,4.8668,4.8671,4.8674,4.8683,4.8683,4.8684,4.8684,0,4.8448,4.8474,4.8477,4.8506,4.8514,4.8511,4.8535,4.8536,4.8553,4.8556,4.8559,4.8584,4.8591,4.8612,4.8623,4.8634,4.8628,4.8636,4.8624,4.8627,4.8615,4.8616,4.8571,4.8567,4.8615,4.8614,4.8614,0,4.8423,4.8423,4.8453,4.8458,4.847,4.8477,4.8485,4.8512,4.8518,4.8538,4.8537,4.8546,4.8556,4.8565,4.8583,4.8593,4.8601,4.8585,4.8602,4.8597,4.8602,4.8602,4.8602,4.8581,4.858,4.858,4.8579,0,4.8377,4.839,4.8401,4.8417,4.8426,4.8439,4.8453,4.8455,4.8486,4.8491,4.8501,4.8508,4.8522,4.8531,4.8543,4.8554,4.8571,4.8574,4.8572,4.8566,4.8559,4.8564,4.8614,4.8574,4.8575,4.8575,4.8576,4.8576,4.8339,4.8341,4.8363,4.8375,4.8389,4.8403,4.8406,4.8425,4.8434,4.8449,4.8464,4.8472,4.8488,4.8508,4.8517,4.8523,4.8532,4.8529,4.8528,4.8527,4.8525,4.8558,4.8525,4.8525,4.8525,4.8525,4.8525,0,4.8295,4.8311,4.8322,4.8343,4.8352,4.8371,4.8388,4.8394,4.8402,4.8417,4.8427,4.8438,4.8448,4.8468,4.8479,4.848,4.8488,4.8482,4.8482,4.8485,4.8515,4.8516,4.8475,4.8475,4.8475,4.8475,4.8475,4.8475,4.8273,4.8277,4.8293,4.8305,4.8321,4.8332,4.834,4.8352,4.8365,4.8378,4.8387,4.8401,4.8419,4.8432,4.8441,4.8447,4.845,4.8441,4.8449,4.8477,4.8482,4.8487,4.8488,4.8441,4.8441,4.8418,4.8418,4.8418]}]]